Weather History for Pella, IA

Change the Weather History Date:

Tuesday, February 21, 2012

  Actual Average (KOXV) Record (KOXV)
Temperature  
Mean Temperature 40 °F -  
Max Temperature 46 °F 42 °F 67 °F (1991)
Min Temperature 34 °F 23 °F -7 °F (1963)
Degree Days  
Heating Degree Days 25    
Moisture  
Dew Point 29 °F    
Average Humidity 67    
Maximum Humidity 86    
Minimum Humidity 46    
Precipitation  
Precipitation 0.00 in - - ()
Sea Level Pressure  
Sea Level Pressure 29.71 in    
Wind  
Wind Speed 11 mph (WSW)    
Max Wind Speed 22 mph    
Max Gust Speed 30 mph    
Visibility 10 miles    
Events      
Averages and records for this station are not official NWS values.
T = Trace of Precipitation, MM = Missing Value Source: NWS Daily Summary

Daily Weather History Graph

Daily Weather History Graph

Search for Another Location

Airport:

Trip Planner

Search our weather history database for the weather conditions in past years. The results will help you decide how hot, cold, wet, or windy it might be!

Date:

Astronomy

Feb. 21, 2012 Rise Set
Actual Time 6:59 AM CST 5:52 PM CST
Civil Twilight 6:30 AM CST 6:20 PM CST
Nautical Twilight 5:58 AM CST 6:52 PM CST
Astronomical Twilight 5:26 AM CST 7:24 PM CST
Moon 6:27 AM CST (2/21) 6:00 PM CST (2/21)
Length of Visible Light 11h 49m
Length of Day
10h 53m
Waning Crescent, 0% of the Moon is Illuminated
Feb 21
Waning Crescent
Feb 21
New
Feb 29
First Quarter
Mar 8
Full
Mar 14
Last Quarter

Hourly Weather History & Observations

Time (CST) Temp. Windchill Dew Point Humidity Pressure Visibility Wind Dir Wind Speed Gust Speed Precip Events Conditions
12:15 AM 35.6 °F 29.2 °F 26.6 °F 70% 29.64 in 10.0 mi ESE 8.1 mph - N/A   Scattered Clouds
12:35 AM 34.9 °F 28.3 °F 26.6 °F 72% 29.63 in 10.0 mi ESE 8.1 mph - N/A   Scattered Clouds
12:55 AM 34.9 °F 26.6 °F 26.6 °F 72% 29.63 in 10.0 mi SE 11.5 mph - N/A   Clear
1:15 AM 35.2 °F 28.8 °F 26.6 °F 71% 29.62 in 10.0 mi SE 8.1 mph - N/A   Mostly Cloudy
1:35 AM 36.3 °F 29.5 °F 26.4 °F 67% 29.63 in 10.0 mi SSE 9.2 mph - N/A   Overcast
1:55 AM 37.2 °F 31.9 °F 26.2 °F 65% 29.63 in 10.0 mi SSE 6.9 mph - N/A   Overcast
2:15 AM 37.0 °F 31.6 °F 26.4 °F 65% 29.62 in 10.0 mi SSE 6.9 mph - N/A   Overcast
2:35 AM 37.2 °F 32.6 °F 26.8 °F 66% 29.62 in 10.0 mi SSE 5.8 mph - N/A   Overcast
2:55 AM 37.2 °F 32.6 °F 28.0 °F 69% 29.61 in 10.0 mi South 5.8 mph - N/A   Overcast
3:35 AM 38.3 °F 32.5 °F 32.0 °F 78% 29.61 in 10.0 mi SW 8.1 mph - N/A   Overcast
3:55 AM 38.3 °F 31.9 °F 32.7 °F 80% 29.60 in 10.0 mi SW 9.2 mph - N/A   Overcast
4:15 AM 38.5 °F 33.4 °F 33.4 °F 82% 29.59 in 10.0 mi SW 6.9 mph - N/A   Overcast
4:35 AM 38.5 °F 32.7 °F 34.0 °F 84% 29.60 in 10.0 mi WSW 8.1 mph - N/A   Overcast
4:55 AM 38.8 °F 33.8 °F 34.3 °F 84% 29.60 in 10.0 mi WSW 6.9 mph - N/A   Overcast
5:15 AM 39.0 °F 32.8 °F 34.5 °F 84% 29.63 in 10.0 mi West 9.2 mph - N/A   Overcast
5:35 AM 39.2 °F 30.8 °F 34.3 °F 83% 29.63 in 10.0 mi West 15.0 mph - N/A   Overcast
5:55 AM 38.7 °F 29.5 °F 34.3 °F 84% 29.65 in 10.0 mi West 17.3 mph 24.2 mph N/A   Overcast
6:15 AM 37.6 °F 26.9 °F 33.6 °F 86% 29.67 in 10.0 mi WNW 21.9 mph 29.9 mph N/A   Overcast
6:35 AM 35.2 °F 24.7 °F 30.9 °F 84% 29.68 in 10.0 mi WNW 18.4 mph 28.8 mph N/A   Overcast
7:15 AM 34.3 °F 24.2 °F 29.3 °F 82% 29.71 in 10.0 mi WNW 16.1 mph 21.9 mph N/A   Overcast
7:35 AM 34.3 °F 25.5 °F 29.3 °F 82% 29.72 in 10.0 mi West 12.7 mph - N/A   Overcast
7:55 AM 34.3 °F 25.0 °F 29.3 °F 82% 29.74 in 10.0 mi West 13.8 mph - N/A   Overcast
8:35 AM 34.7 °F 25.9 °F 29.7 °F 82% 29.75 in 10.0 mi West 12.7 mph 20.7 mph N/A   Scattered Clouds
8:55 AM 35.4 °F 26.8 °F 29.8 °F 80% 29.76 in 10.0 mi West 12.7 mph 17.3 mph N/A   Scattered Clouds
9:15 AM 36.0 °F 25.3 °F 30.0 °F 79% 29.76 in 10.0 mi WSW 19.6 mph 25.3 mph N/A   Mostly Cloudy
9:35 AM 36.7 °F 26.6 °F 30.2 °F 77% 29.77 in 10.0 mi West 18.4 mph 26.5 mph N/A   Mostly Cloudy
9:55 AM 36.9 °F 27.1 °F 30.2 °F 77% 29.77 in 10.0 mi West 17.3 mph 23.0 mph N/A   Scattered Clouds
10:15 AM 37.6 °F 28.1 °F 30.6 °F 76% 29.77 in 10.0 mi West 17.3 mph 23.0 mph N/A   Scattered Clouds
10:35 AM 38.5 °F 30.7 °F 30.6 °F 73% 29.77 in 10.0 mi West 12.7 mph 20.7 mph N/A   Clear
10:55 AM 40.5 °F 32.5 °F 30.6 °F 68% 29.77 in 10.0 mi WSW 15.0 mph - N/A   Clear
11:15 AM 41.9 °F 34.3 °F 30.6 °F 64% 29.77 in 10.0 mi West 15.0 mph - N/A   Clear
11:35 AM 42.8 °F 35.4 °F 30.2 °F 61% 29.77 in 10.0 mi West 15.0 mph 24.2 mph N/A   Clear
11:55 AM 43.0 °F 36.4 °F 29.3 °F 59% 29.77 in 10.0 mi West 12.7 mph 25.3 mph N/A   Clear
12:15 PM 43.2 °F 35.3 °F 29.3 °F 58% 29.76 in 10.0 mi West 17.3 mph 23.0 mph N/A   Clear
12:35 PM 44.8 °F 37.4 °F 29.5 °F 55% 29.75 in 10.0 mi West 17.3 mph 24.2 mph N/A   Clear
12:55 PM 45.1 °F 37.6 °F 29.1 °F 54% 29.74 in 10.0 mi West 18.4 mph 23.0 mph N/A   Clear
1:15 PM 45.5 °F 37.3 °F 28.9 °F 52% 29.74 in 10.0 mi West 21.9 mph 25.3 mph N/A   Clear
1:35 PM 46.0 °F 38.8 °F 28.6 °F 51% 29.74 in 10.0 mi West 18.4 mph 25.3 mph N/A   Clear
2:15 PM 46.0 °F 38.8 °F 27.0 °F 47% 29.74 in 10.0 mi West 18.4 mph 28.8 mph N/A   Clear
2:35 PM 46.4 °F 39.5 °F 27.1 °F 47% 29.74 in 10.0 mi West 17.3 mph 23.0 mph N/A   Scattered Clouds
2:55 PM 46.0 °F 39.3 °F 26.2 °F 46% 29.75 in 10.0 mi West 16.1 mph 25.3 mph N/A   Scattered Clouds
3:15 PM 45.5 °F 38.3 °F 26.6 °F 48% 29.75 in 10.0 mi West 17.3 mph 23.0 mph N/A   Scattered Clouds
3:35 PM 46.2 °F 39.3 °F 26.6 °F 46% 29.75 in 10.0 mi West 17.3 mph 27.6 mph N/A   Scattered Clouds
3:55 PM 45.0 °F 37.9 °F 26.2 °F 48% 29.75 in 10.0 mi West 16.1 mph 23.0 mph N/A   Scattered Clouds
4:15 PM 44.2 °F 38.8 °F 26.2 °F 49% 29.75 in 10.0 mi West 10.4 mph - N/A   Scattered Clouds
4:35 PM 44.1 °F 36.8 °F 27.0 °F 51% 29.75 in 10.0 mi West 16.1 mph 23.0 mph N/A   Scattered Clouds
4:55 PM 44.1 °F 38.1 °F 27.0 °F 51% 29.75 in 10.0 mi West 11.5 mph 17.3 mph N/A   Scattered Clouds
5:15 PM 43.3 °F 36.8 °F 25.9 °F 50% 29.76 in 10.0 mi West 12.7 mph - N/A   Clear
5:35 PM 42.1 °F 35.2 °F 25.9 °F 53% 29.76 in 10.0 mi West 12.7 mph 18.4 mph N/A   Clear
5:55 PM 40.5 °F 34.1 °F 25.7 °F 56% 29.76 in 10.0 mi West 10.4 mph - N/A   Clear
6:35 PM 37.6 °F 32.3 °F 26.1 °F 63% 29.77 in 10.0 mi West 6.9 mph - N/A   Clear
7:15 PM 36.1 °F 31.4 °F 26.4 °F 68% 29.77 in 10.0 mi WSW 5.8 mph - N/A   Clear
7:35 PM 35.8 °F 31.9 °F 26.2 °F 68% 29.77 in 10.0 mi WSW 4.6 mph - N/A   Clear
7:55 PM 35.6 °F 30.7 °F 25.9 °F 68% 29.77 in 10.0 mi SW 5.8 mph - N/A   Clear
8:15 PM 34.5 °F 29.4 °F 25.5 °F 70% 29.76 in 10.0 mi SW 5.8 mph - N/A   Clear
8:35 PM 34.5 °F 30.4 °F 25.5 °F 70% 29.76 in 10.0 mi SW 4.6 mph - N/A   Clear
8:55 PM 34.5 °F 30.4 °F 26.1 °F 71% 29.76 in 10.0 mi WSW 4.6 mph - N/A   Clear
9:15 PM 34.9 °F 32.0 °F 26.6 °F 72% 29.75 in 10.0 mi WSW 3.5 mph - N/A   Scattered Clouds
9:35 PM 35.4 °F - 26.6 °F 70% 29.74 in 10.0 mi Calm Calm - N/A   Scattered Clouds
9:55 PM 35.2 °F - 26.6 °F 71% 29.73 in 10.0 mi Calm Calm - N/A   Clear
10:15 PM 34.2 °F - 26.6 °F 74% 29.72 in 10.0 mi Calm Calm - N/A   Scattered Clouds
10:35 PM 34.3 °F 31.4 °F 26.6 °F 73% 29.71 in 10.0 mi SSW 3.5 mph - N/A   Clear
10:55 PM 33.6 °F 29.4 °F 26.2 °F 74% 29.71 in 10.0 mi South 4.6 mph - N/A   Clear
11:15 PM 33.1 °F 28.7 °F 26.4 °F 77% 29.70 in 10.0 mi South 4.6 mph - N/A   Clear
11:35 PM 33.1 °F 28.7 °F 26.2 °F 76% 29.69 in 10.0 mi South 4.6 mph - N/A   Clear
11:55 PM 33.3 °F 28.9 °F 26.2 °F 75% 29.68 in 10.0 mi South 4.6 mph - N/A   Clear